GW7054 Weather Reports


time (UTC)temp
C
wind
direction
speed
KPH
gust
KPH
rain 1hr
cm
rain 24hr
cm
rain mn
cm
humidity
%
barometer
mb
20260507001630 25 156 1.6 1.6 0.00 0.00 0.00 72 1017.1
20260507001127 25 41 0.0 3.2 0.00 0.00 0.00 71 1017.1
20260507000623 26 0 0.0 1.6 0.00 0.00 0.00 70 1017.0
20260507000119 26 178 3.2 4.8 0.00 0.00 0.00 69 1016.7
20260506235617 26 103 3.2 4.8 0.00 0.00 0.00 68 1016.6
20260506235116 26 75 1.6 1.6 0.00 0.00 0.00 67 1016.6
20260506234614 27 114 1.6 1.6 0.00 0.00 0.00 66 1016.6
20260506234111 27 77 1.6 3.2 0.00 0.00 0.00 66 1016.5
20260506233608 27 208 4.8 8.0 0.00 0.00 0.00 65 1016.4
20260506233105 27 73 3.2 3.2 0.00 0.00 0.00 64 1016.7
20260506232601 27 183 4.8 4.8 0.00 0.00 0.00 63 1016.6
20260506232101 28 80 1.6 1.6 0.00 0.00 0.00 63 1016.4
20260506231559 28 300 4.8 8.0 0.00 0.00 0.00 62 1016.7
20260506231057 28 16 1.6 3.2 0.00 0.00 0.00 61 1016.3
20260506230553 28 126 3.2 3.2 0.00 0.00 0.00 61 1016.7
20260506230051 28 77 6.4 8.0 0.00 0.00 0.00 60 1016.6
20260506225548 29 160 3.2 3.2 0.00 0.00 0.00 60 1016.7
20260506225044 29 296 4.8 4.8 0.00 0.00 0.00 60 1016.7
20260506224541 29 234 6.4 8.0 0.00 0.00 0.00 60 1016.6
20260506224037 29 308 4.8 4.8 0.00 0.00 0.00 60 1016.8
20260506223533 29 107 1.6 3.2 0.00 0.00 0.00 59 1016.7
20260506223030 30 288 8.0 11.3 0.00 0.00 0.00 58 1016.8
20260506222527 30 171 3.2 4.8 0.00 0.00 0.00 58 1016.8
20260506222023 30 198 3.2 4.8 0.00 0.00 0.00 57 1016.7
20260506221521 31 311 3.2 3.2 0.00 0.00 0.00 56 1016.7
20260506221019 31 251 6.4 8.0 0.00 0.00 0.00 55 1016.7
20260506220514 31 257 3.2 3.2 0.00 0.00 0.00 55 1016.7
20260506220010 31 103 1.6 1.6 0.00 0.00 0.00 55 1016.6
20260506215507 31 302 6.4 9.7 0.00 0.00 0.00 54 1016.6
20260506215003 31 294 9.7 12.9 0.00 0.00 0.00 54 1016.3
20260506214500 31 163 6.4 11.3 0.00 0.00 0.00 54 1016.6
20260506213957 31 301 8.0 9.7 0.00 0.00 0.00 52 1016.4
20260506213455 31 280 1.6 3.2 0.00 0.00 0.00 53 1016.3
20260506212952 32 140 12.9 17.7 0.00 0.00 0.00 51 1016.3
20260506212448 32 283 11.3 14.5 0.00 0.00 0.00 52 1016.4
20260506211943 32 33 8.0 12.9 0.00 0.00 0.00 53 1016.4
20260506211439 32 174 4.8 9.7 0.00 0.00 0.00 53 1016.4
20260506210936 32 177 3.2 3.2 0.00 0.00 0.00 52 1016.5
20260506210433 32 232 3.2 4.8 0.00 0.00 0.00 53 1016.5
20260506205930 32 167 9.7 14.5 0.00 0.00 0.00 52 1016.5
20260506205426 32 114 1.6 3.2 0.00 0.00 0.00 52 1016.4
20260506204922 33 189 11.3 14.5 0.00 0.00 0.00 51 1016.5
20260506204420 33 179 3.2 4.8 0.00 0.00 0.00 50 1016.4
20260506203918 33 195 8.0 9.7 0.00 0.00 0.00 48 1016.6
20260506203414 33 125 6.4 8.0 0.00 0.00 0.00 48 1016.6
20260506202911 33 184 3.2 3.2 0.00 0.00 0.00 50 1016.7
20260506202409 33 83 1.6 1.6 0.00 0.00 0.00 50 1016.5
20260506201905 33 102 0.0 1.6 0.00 0.00 0.00 50 1016.7
20260506201403 33 314 8.0 11.3 0.00 0.00 0.00 49 1016.6
20260506200859 33 264 4.8 4.8 0.00 0.00 0.00 47 1016.8
20260506200355 33 124 1.6 3.2 0.00 0.00 0.00 48 1016.8
20260506195851 33 68 4.8 8.0 0.00 0.00 0.00 47 1016.9
20260506195349 33 113 0.0 1.6 0.00 0.00 0.00 47 1016.7
20260506194846 33 296 6.4 9.7 0.00 0.00 0.00 47 1016.9
20260506194342 33 85 3.2 3.2 0.00 0.00 0.00 48 1017.2
20260506193840 33 271 6.4 9.7 0.00 0.00 0.00 48 1017.0
20260506193336 33 59 1.6 1.6 0.00 0.00 0.00 50 1017.0
20260506192833 33 312 1.6 3.2 0.00 0.00 0.00 49 1017.0
20260506192330 32 108 4.8 8.0 0.00 0.00 0.00 49 1017.1
20260506191827 32 150 8.0 9.7 0.00 0.00 0.00 54 1017.1
20260506191323 33 140 3.2 3.2 0.00 0.00 0.00 52 1017.2
20260506190820 33 87 1.6 3.2 0.00 0.00 0.00 52 1017.2
20260506190316 33 210 6.4 8.0 0.00 0.00 0.00 51 1017.1
20260506185814 32 77 0.0 1.6 0.00 0.00 0.00 54 1017.4
20260506185310 32 150 4.8 8.0 0.00 0.00 0.00 53 1017.7
20260506184807 32 302 1.6 3.2 0.00 0.00 0.00 55 1017.5
20260506184305 33 263 6.4 8.0 0.00 0.00 0.00 53 1018.0
20260506183802 33 278 4.8 8.0 0.00 0.00 0.00 52 1017.7
20260506183257 32 246 4.8 4.8 0.00 0.00 0.00 54 1017.6
20260506182754 32 100 1.6 3.2 0.00 0.00 0.00 54 1017.9
20260506182251 32 79 3.2 3.2 0.00 0.00 0.00 56 1017.7
20260506181749 32 264 6.4 9.7 0.00 0.00 0.00 55 1017.9
20260506181247 31 248 6.4 9.7 0.00 0.00 0.00 57 1018.1
20260506180744 30 57 3.2 3.2 0.00 0.00 0.00 61 1018.1
20260506180239 31 109 3.2 4.8 0.00 0.00 0.00 61 1018.0
20260506175736 31 82 0.0 0.0 0.00 0.00 0.00 58 1018.2
20260506175233 31 95 1.6 1.6 0.00 0.00 0.00 58 1018.1
20260506174730 31 29 3.2 3.2 0.00 0.00 0.00 57 1018.3
20260506174227 32 140 6.4 8.0 0.00 0.00 0.00 57 1018.4
20260506173725 31 158 4.8 8.0 0.00 0.00 0.00 58 1018.5
20260506173221 31 278 3.2 3.2 0.00 0.00 0.00 58 1018.5
20260506172718 31 317 16.1 22.5 0.00 0.00 0.00 56 1018.5
20260506172215 32 179 6.4 9.7 0.00 0.00 0.00 57 1018.7
20260506171713 30 113 3.2 3.2 0.00 0.00 0.00 63 1018.5
20260506171210 30 196 6.4 8.0 0.00 0.00 0.00 60 1018.6
20260506170707 31 191 1.6 1.6 0.00 0.00 0.00 60 1018.7
20260506170204 29 198 3.2 4.8 0.00 0.00 0.00 64 1018.7
20260506165702 30 122 4.8 8.0 0.00 0.00 0.00 63 1018.8
20260506165158 31 349 3.2 4.8 0.00 0.00 0.00 60 1018.9
20260506164655 30 86 4.8 4.8 0.00 0.00 0.00 63 1018.6
20260506164153 29 192 6.4 8.0 0.00 0.00 0.00 63 1019.0
20260506163649 30 224 8.0 11.3 0.00 0.00 0.00 61 1019.0
20260506163144 30 154 4.8 8.0 0.00 0.00 0.00 62 1018.9
20260506162641 30 214 6.4 8.0 0.00 0.00 0.00 65 1019.0
20260506162138 29 163 6.4 8.0 0.00 0.00 0.00 67 1018.9
20260506161635 30 178 3.2 4.8 0.00 0.00 0.00 64 1018.7
20260506161132 29 88 6.4 11.3 0.00 0.00 0.00 67 1019.0
20260506160630 28 188 4.8 8.0 0.00 0.00 0.00 66 1019.0
20260506160126 28 172 11.3 12.9 0.00 0.00 0.00 68 1019.1
20260506155626 28 113 4.8 8.0 0.00 0.00 0.00 67 1019.0
20260506155122 28 190 9.7 12.9 0.00 0.00 0.00 68 1018.9
20260506153224 28 219 4.8 8.0 0.00 0.00 0.00 70 1019.2
20260506152721 28 151 11.3 12.9 0.00 0.00 0.00 69 1019.1
20260506152218 27 139 11.3 12.9 0.00 0.00 0.00 72 1019.2
20260506151717 27 205 6.4 11.3 0.00 0.00 0.00 73 1019.1
20260506151213 27 137 11.3 12.9 0.00 0.00 0.00 72 1018.9
20260506150709 27 158 6.4 8.0 0.00 0.00 0.00 73 1019.0
20260506150207 27 120 6.4 8.0 0.00 0.00 0.00 73 1019.1
20260506145704 26 187 8.0 11.3 0.00 0.00 0.00 74 1018.9
20260506145200 26 128 9.7 11.3 0.00 0.00 0.00 75 1019.0
20260506144658 26 131 6.4 9.7 0.00 0.00 0.00 74 1019.0
20260506144155 26 231 4.8 8.0 0.00 0.00 0.00 75 1018.9
20260506143653 26 263 3.2 3.2 0.00 0.00 0.00 74 1019.0
20260506143150 26 246 6.4 8.0 0.00 0.00 0.00 76 1019.0
20260506142648 25 198 14.5 20.9 0.00 0.00 0.00 77 1018.9
20260506142146 26 205 3.2 4.8 0.00 0.00 0.00 76 1018.9
20260506141643 26 122 1.6 3.2 0.00 0.00 0.00 76 1018.8
20260506141141 25 212 8.0 9.7 0.00 0.00 0.00 77 1018.9
20260506140638 25 178 6.4 9.7 0.00 0.00 0.00 78 1018.7
20260506140136 25 204 4.8 8.0 0.00 0.00 0.00 79 1018.6
20260506135633 25 169 8.0 9.7 0.00 0.00 0.00 79 1018.6
20260506135129 25 191 14.5 16.1 0.00 0.00 0.00 80 1018.6
20260506134626 24 200 4.8 8.0 0.00 0.00 0.00 81 1018.8
20260506134121 24 146 8.0 11.3 0.00 0.00 0.00 80 1018.9
20260506133619 24 142 8.0 11.3 0.00 0.00 0.00 80 1018.7
20260506133116 23 126 3.2 3.2 0.00 0.00 0.00 81 1018.6
20260506132613 24 156 8.0 12.9 0.00 0.00 0.00 80 1018.8
20260506132110 23 102 0.0 1.6 0.00 0.00 0.00 80 1018.6
20260506131608 23 171 6.4 9.7 0.00 0.00 0.00 79 1018.7
20260506131103 23 170 9.7 11.3 0.00 0.00 0.00 79 1018.6
20260506130601 23 117 3.2 4.8 0.00 0.00 0.00 79 1018.7
20260506130058 23 192 6.4 12.9 0.00 0.00 0.00 79 1018.5
20260506125556 22 102 3.2 3.2 0.00 0.00 0.00 80 1018.4
20260506125054 22 104 4.8 4.8 0.00 0.00 0.00 80 1018.5
20260506124551 22 190 4.8 4.8 0.00 0.00 0.00 81 1018.5
20260506124049 21 124 1.6 1.6 0.00 0.00 0.00 82 1018.4
20260506123546 21 124 4.8 4.8 0.00 0.00 0.00 82 1018.4
20260506123045 21 136 6.4 8.0 0.00 0.00 0.00 83 1018.6
20260506122541 20 188 8.0 9.7 0.00 0.00 0.00 84 1018.4
20260506122039 20 162 8.0 8.0 0.00 0.00 0.00 85 1018.3
20260506121536 20 115 3.2 3.2 0.00 0.00 0.00 86 1018.3
20260506121032 19 131 3.2 3.2 0.00 0.00 0.00 87 1018.2
20260506120530 18 133 3.2 3.2 0.00 0.00 0.00 88 1018.2
20260506120028 18 104 1.6 1.6 0.00 0.00 0.00 89 1018.1
20260506115526 17 102 0.0 1.6 0.00 0.00 0.00 90 1017.9
20260506115024 17 98 1.6 1.6 0.00 0.00 0.00 93 1018.1
20260506114520 16 90 0.0 0.0 0.00 0.00 0.00 95 1018.0
20260506114019 16 93 0.0 0.0 0.00 0.00 0.00 96 1017.9
20260506113517 16 89 0.0 0.0 0.00 0.00 0.00 97 1017.7
20260506113014 16 92 0.0 0.0 0.00 0.00 0.00 97 1018.0
20260506112510 15 91 0.0 0.0 0.00 0.00 0.00 98 1017.8
20260506112008 15 88 0.0 0.0 0.00 0.00 0.00 98 1018.0
20260506111506 15 90 0.0 0.0 0.00 0.00 0.00 99 1017.8
20260506111002 15 91 0.0 0.0 0.00 0.00 0.00 99 1017.7
20260506110500 15 92 0.0 0.0 0.00 0.00 0.00 99 1017.7
20260506105956 15 88 0.0 0.0 0.00 0.00 0.00 99 1017.8
20260506105453 15 92 0.0 0.0 0.00 0.00 0.00 99 1017.7
20260506104951 14 91 0.0 0.0 0.00 0.00 0.00 99 1017.7
20260506104448 14 91 0.0 0.0 0.00 0.00 0.00 99 1017.4
20260506103947 14 92 0.0 0.0 0.00 0.00 0.00 99 1017.5
20260506103443 14 91 0.0 0.0 0.00 0.00 0.00 99 1017.5
20260506102940 14 92 0.0 0.0 0.00 0.00 0.00 99 1017.6
20260506102438 14 92 0.0 0.0 0.00 0.00 0.00 99 1017.5
20260506101935 14 93 0.0 0.0 0.00 0.00 0.00 99 1017.3
20260506101432 14 91 0.0 0.0 0.00 0.00 0.00 99 1017.6
20260506100929 14 88 0.0 0.0 0.00 0.00 0.00 99 1017.7
20260506100427 15 89 0.0 0.0 0.00 0.00 0.00 99 1017.4
20260506095925 14 92 0.0 0.0 0.00 0.00 0.00 99 1017.5
20260506095423 15 88 0.0 0.0 0.00 0.00 0.00 98 1017.7
20260506094919 15 88 0.0 0.0 0.00 0.00 0.00 98 1017.6
20260506094418 15 88 0.0 0.0 0.00 0.00 0.00 98 1017.4
20260506093915 15 88 0.0 0.0 0.00 0.00 0.00 97 1017.5
20260506093413 15 88 0.0 0.0 0.00 0.00 0.00 97 1017.2
20260506092910 15 88 0.0 0.0 0.00 0.00 0.00 97 1017.5
20260506092408 15 92 0.0 0.0 0.00 0.00 0.00 97 1017.1
20260506091904 15 88 0.0 0.0 0.00 0.00 0.00 97 1017.3
20260506091403 15 88 0.0 0.0 0.00 0.00 0.00 97 1017.5
20260506090859 15 88 0.0 0.0 0.00 0.00 0.00 96 1017.4
20260506090357 15 88 0.0 0.0 0.00 0.00 0.00 96 1017.4
20260506085853 15 88 0.0 0.0 0.00 0.00 0.00 96 1017.4
20260506085350 15 88 0.0 0.0 0.00 0.00 0.00 96 1017.4
20260506084847 15 89 0.0 0.0 0.00 0.00 0.00 96 1017.2
20260506084343 15 89 0.0 0.0 0.00 0.00 0.00 96 1017.6
20260506083840 15 88 0.0 0.0 0.00 0.00 0.00 95 1017.5
20260506083338 15 88 0.0 0.0 0.00 0.00 0.00 95 1017.2
20260506082835 15 88 0.0 0.0 0.00 0.00 0.00 95 1017.2
20260506082331 15 88 0.0 0.0 0.00 0.00 0.00 94 1017.1
20260506081827 15 88 0.0 0.0 0.00 0.00 0.00 94 1017.5
20260506081326 15 88 0.0 0.0 0.00 0.00 0.00 93 1017.4
20260506080823 15 88 0.0 0.0 0.00 0.00 0.00 93 1017.6
20260506080319 15 88 0.0 0.0 0.00 0.00 0.00 93 1017.3
20260506073304 16 88 0.0 0.0 0.00 0.00 0.00 89 1017.1
20260506072800 16 90 0.0 0.0 0.00 0.00 0.00 89 1017.1
20260506072258 16 88 0.0 0.0 0.00 0.00 0.00 89 1017.0
20260506071755 16 88 0.0 0.0 0.00 0.00 0.00 89 1017.4
20260506071253 16 90 0.0 0.0 0.00 0.00 0.00 88 1017.2
20260506070750 16 90 0.0 0.0 0.00 0.00 0.00 88 1017.2
20260506070247 16 93 0.0 0.0 0.00 0.00 0.00 87 1017.3
20260506062224 16 92 0.0 1.6 0.00 0.00 0.00 87 1017.7
20260506061719 16 85 0.0 0.0 0.00 0.00 0.00 89 1017.5
20260506061217 16 91 0.0 0.0 0.00 0.00 0.00 89 1017.7
20260506060716 16 93 0.0 0.0 0.00 0.00 0.00 89 1017.7
20260506060212 16 91 0.0 0.0 0.00 0.00 0.00 89 1017.8
20260506051144 16 91 0.0 0.0 0.00 0.00 0.00 88 1017.9
20260506050643 17 88 0.0 0.0 0.00 0.00 0.00 87 1018.1
20260506050139 17 87 0.0 0.0 0.00 0.00 0.00 86 1018.4
20260506045132 17 88 0.0 0.0 0.00 0.00 0.00 87 1018.3
20260506044631 17 91 0.0 0.0 0.00 0.00 0.00 87 1018.4
20260506044127 17 91 0.0 0.0 0.00 0.00 0.00 87 1018.5
20260506043624 17 94 0.0 0.0 0.00 0.00 0.00 88 1018.6
20260506043123 17 91 0.0 0.0 0.00 0.00 0.00 88 1018.5
20260506042621 17 88 0.0 0.0 0.00 0.00 0.00 86 1018.6
20260506042119 17 87 0.0 0.0 0.00 0.00 0.00 86 1018.4
20260506041618 17 87 0.0 0.0 0.00 0.00 0.00 87 1018.5
20260506041114 17 91 0.0 0.0 0.00 0.00 0.00 87 1018.5
20260506040612 17 89 0.0 0.0 0.00 0.00 0.00 86 1018.6
20260506040108 17 88 0.0 0.0 0.00 0.00 0.00 86 1018.4
20260506035605 18 88 0.0 0.0 0.00 0.00 0.00 87 1018.6
20260506035102 18 88 0.0 0.0 0.00 0.00 0.00 86 1018.4
20260506034559 18 89 0.0 0.0 0.00 0.00 0.00 86 1018.4
20260506034056 18 91 0.0 0.0 0.00 0.00 0.00 87 1018.5
20260506033553 18 91 0.0 0.0 0.00 0.00 0.00 87 1018.5
20260506033049 18 91 0.0 0.0 0.00 0.00 0.00 87 1018.6
20260506032547 18 91 0.0 0.0 0.00 0.00 0.00 87 1018.5
20260506032044 18 88 0.0 0.0 0.00 0.00 0.00 86 1018.7
20260506031542 18 88 0.0 0.0 0.00 0.00 0.00 85 1018.4
20260506031038 19 87 0.0 0.0 0.00 0.00 0.00 85 1018.6
20260506030536 19 87 0.0 0.0 0.00 0.00 0.00 86 1018.4
20260506030033 19 83 0.0 0.0 0.00 0.00 0.00 86 1018.3
20260506025530 19 88 0.0 0.0 0.00 0.00 0.00 85 1018.4
20260506025026 19 96 0.0 0.0 0.00 0.00 0.00 85 1018.3
20260506024523 19 98 0.0 0.0 0.00 0.00 0.00 84 1018.3
20260506024020 19 87 0.0 0.0 0.00 0.00 0.00 84 1018.1
20260506023516 20 88 0.0 0.0 0.00 0.00 0.00 84 1018.0
20260506023014 20 87 0.0 0.0 0.00 0.00 0.00 83 1018.2
20260506022511 20 96 0.0 0.0 0.00 0.00 0.00 82 1018.0
20260506022009 20 88 0.0 0.0 0.00 0.00 0.00 82 1017.7
20260506021506 20 78 0.0 1.6 0.00 0.00 0.00 81 1017.7
20260506021003 21 74 0.0 0.0 0.00 0.00 0.00 80 1017.8
20260506020500 21 75 1.6 1.6 0.00 0.00 0.00 79 1017.9
20260506015957 20 66 0.0 1.6 0.00 0.00 0.00 79 1017.7
20260506015455 20 109 0.0 0.0 0.00 0.00 0.00 81 1017.3
20260506014951 20 93 0.0 0.0 0.00 0.00 0.00 81 1017.2
20260506014448 20 78 0.0 0.0 0.00 0.00 0.00 80 1017.1
20260506013944 20 89 0.0 0.0 0.00 0.00 0.00 81 1017.1
20260506013443 20 89 0.0 0.0 0.00 0.00 0.00 81 1016.7
20260506012939 20 92 0.0 0.0 0.00 0.00 0.00 81 1016.8
20260506012436 20 95 0.0 0.0 0.00 0.00 0.00 80 1016.9
20260506011932 21 96 0.0 0.0 0.00 0.00 0.00 79 1016.9
20260506011430 21 93 0.0 0.0 0.00 0.00 0.00 78 1016.9
20260506010926 21 93 0.0 0.0 0.00 0.00 0.00 78 1016.8
20260506010426 21 90 0.0 0.0 0.00 0.00 0.00 77 1016.5
20260506005921 21 94 0.0 0.0 0.00 0.00 0.00 76 1016.7
20260506005419 22 96 0.0 0.0 0.00 0.00 0.00 74 1016.4
20260506004914 22 92 0.0 0.0 0.00 0.00 0.00 73 1016.5
20260506004413 22 100 0.0 0.0 0.00 0.00 0.00 72 1016.6
20260506003908 23 92 0.0 0.0 0.00 0.00 0.00 70 1016.7
20260506003404 23 57 0.0 0.0 0.00 0.00 0.00 69 1016.7
20260506002901 23 108 0.0 1.6 0.00 0.00 0.00 69 1016.8
20260506002357 24 72 1.6 3.2 0.00 0.00 0.00 67 1016.7